Location: Ehrenfriedersdorf
(50.6405°N, 12.9575°E)
Time: 13:06:51
(UTC+02:00)

ISS - Visible Passes

Search period start: 22 September 2018 00:00
Search period end: 02 October 2018 00:00
Orbit: 403 x 408 km, 51.6° (Epoch: 22 September)

Date Brightness Start Highest point End Pass type
(mag) Time Alt. Az. Time Alt. Az. Time Alt. Az.
22 Sep -1.8 20:27:25 10° S 20:28:50 15° SSE 20:28:50 15° SSE visible
23 Sep -1.5 19:37:31 10° SE 19:37:56 10° SE 19:38:22 10° SE visible
23 Sep -2.2 21:10:37 10° SW 21:12:17 25° SSW 21:12:17 25° SSW visible
24 Sep -2.8 20:19:04 10° SSW 20:21:59 29° SSE 20:22:48 26° ESE visible
24 Sep -0.9 21:54:58 10° WSW 21:55:31 14° WSW 21:55:31 14° WSW visible
25 Sep -2.2 19:27:47 10° S 19:30:14 19° SE 19:32:42 10° E visible
25 Sep -3.5 21:03:04 10° WSW 21:05:53 58° SW 21:05:53 58° SW visible
26 Sep -3.6 20:11:16 10° SW 20:14:28 51° SSE 20:16:08 24° E visible
26 Sep -1.3 21:47:38 10° W 21:48:49 20° W 21:48:49 20° W visible
27 Sep -3.9 20:55:39 10° W 20:58:57 83° NNW 20:58:57 83° NNW visible
28 Sep -3.9 20:03:41 10° WSW 20:07:00 80° SSE 20:09:02 21° ENE visible
28 Sep -1.4 21:40:16 10° W 21:41:42 23° WNW 21:41:42 23° WNW visible
29 Sep -3.8 20:48:15 10° W 20:51:33 72° N 20:51:43 70° NNE visible
30 Sep -3.8 19:56:14 10° W 19:59:32 79° N 20:01:42 20° ENE visible
30 Sep -1.5 21:32:50 10° WNW 21:34:22 25° WNW 21:34:22 25° WNW visible
01 Oct -3.9 20:40:48 10° W 20:44:07 75° N 20:44:18 71° NE visible
